Location: Karlsruhe
(49.0131°N, 8.3874°E)
Time: 18:07:05
(UTC+02:00)

ISS - Pass Details

Date: 29 March 2017
Orbit: 401 x 409 km, 51.6° (Epoch: 29 April)

Event Time Altitude Azimuth Distance (km) Brightness Sun altitude
Rises 21:28:33 0° 235° (SW) 2,313 0.4 -15.8°
Reaches altitude 10° 21:30:39 10° 230° (SW) 1,458 -0.7 -16.1°
Maximum altitude 21:33:50 54° 152° (SSE) 498 -3.7 -16.6°
Enters shadow 21:34:19 48° 117° (ESE) 538 -3.7 -16.7°
